Regional Weather Roundup
Issued by NWS

Home | Current Version | Previous Version | Text Only | Print | Product List | Glossary Off
Versions: 1 2 3 4 5 6 7 8 9 10 11 12 13 14 15 16 17 18 19 20 21 22 23 24 25 26 27 28 29 30 31 32 33 34 35 36 37 38 39 40 41 42 43 44 45 46 47 48 49 50

000
ASUS43 KIND 252209
RWRIN

WEATHER ROUNDUP FOR INDIANA
NATIONAL WEATHER SERVICE INDIANAPOLIS IN
600 PM EDT FRI JUL 25 2014

NOTE: "FAIR" INDICATES FEW OR NO CLOUDS BELOW 12,000 FEET WITH NO
SIGNIFICANT WEATHER AND/OR OBSTRUCTIONS TO VISIBILITY.

* - STATION DOES NOT REPORT WEATHER SUCH AS PRECIPITATION OR FOG.

+ - STATION NOT QUALITY CONTROLLED BY THE NATIONAL WEATHER SERVICE.
    USE DATA WITH CAUTION...ESPECIALLY DEWPOINT AND RELATIVE
    HUMIDITY OBSERVATIONS.

INZ001>003-010>013-019-020-252300-
NORTHWEST INDIANA

CITY           SKY/WX    TMP DP  RH WIND       PRES   REMARKS
GARY /AIRPORT/ CLOUDY    73  57  56 S12       29.95F
KNOX *+        CLOUDY    70  56  61 SW5       29.98R
LA PORTE +     CLOUDY    70  56  61 SW7       29.98F
MICHIGAN CITY+ CLOUDY    70  55  60 S5        29.97F
MONTICELLO +   CLOUDY    72  58  62 SW6       29.96R
RENSSELAER +   CLOUDY    72  61  68 S5        29.97S
VALPARAISO     CLOUDY    71  57  61 SW9       29.98S

$$

LMZ046-743>745-252300-
SOUTHERN LAKE MICHIGAN

STATION/POSITION TIME  TEMP WIND        PRES
                       AIR  DIR/SP/G
                 (UTC) (F)  (DEG/KT/KT) (MB)
MICHIGAN CITY    2200   71  190/  9/ 10   N/A

$$

INZ004-005-014>016-021>024-252300-
NORTH CENTRAL INDIANA

CITY           SKY/WX    TMP DP  RH WIND       PRES   REMARKS
ELKHART        CLOUDY    72  55  56 SW5       30.00S
GOSHEN         CLOUDY    71  61  70 W3        30.00R
LOGANSPORT +   CLOUDY    70  55  60 S8        29.97F
PERU/GRISSOM   CLOUDY    73  60  63 S7        29.96F
ROCHESTER +    CLOUDY    73  57  56 SW3       29.97F
SOUTH BEND     CLOUDY    72  57  59 S6        29.98F
WARSAW +       CLOUDY    70  55  60 SW3       30.00R

$$

INZ006>009-017-018-025>027-252300-
NORTHEAST INDIANA

CITY           SKY/WX    TMP DP  RH WIND       PRES   REMARKS
ANGOLA *+      MOSUNNY   72  57  60 W5        30.01R
AUBURN +       DRIZZLE   72  54  53 W3        30.01R
FORT WAYNE     CLOUDY    73  55  53 SW8       30.01R
HUNTINGTON +   CLOUDY    72  56  58 SW3       30.00R

$$

INZ028-029-035-036-043>045-051>053-252300-
WEST CENTRAL INDIANA

CITY           SKY/WX    TMP DP  RH WIND       PRES   REMARKS
GREENCASTLE +  CLOUDY    72  59  64 S10       29.98S
LAFAYETTE      PTSUNNY   74  57  55 S10       29.96R
TERRE HAUTE    CLOUDY    73  60  63 SE8       29.95F

$$

INZ030>032-037>040-046>048-054>057-064-065-252300-
CENTRAL INDIANA

CITY           SKY/WX    TMP DP  RH WIND       PRES   REMARKS
CP ATTERBURY + CLOUDY    72  59  64 SE3       30.01S
COLUMBUS       PTSUNNY   73  57  56 S3        30.00F
GREENWOOD *+   CLOUDY    73  61  64 S8        29.99
INDIANAPOLIS   CLOUDY    71  58  63 S10       29.97F
-EAGLE CREEK   CLOUDY    71  55  56 S7        29.97F
KOKOMO *+      CLOUDY    72  57  60 SE6       29.97F
MARION +       CLOUDY    71  55  56 S5        29.99S
MT COMFORT *+  CLOUDY    70  64  83 SE5       29.99F
SHELBYVILLE    CLOUDY    74  60  61 SE5       29.99F
ZIONSVILLE +   CLOUDY    72  56  57 S10       29.98F

$$

INZ033-034-041-042-049-050-058-059-252300-
EAST CENTRAL INDIANA

CITY           SKY/WX    TMP DP  RH WIND       PRES   REMARKS
MUNCIE         LGT RAIN  72  55  55 S10       29.99F

$$

INZ060-061-067>069-081>083-085>088-252300-
SOUTHWEST INDIANA

CITY           SKY/WX    TMP DP  RH WIND       PRES   REMARKS
EVANSVILLE     CLOUDY    75  58  55 S14       29.92F
HUNTINGBURG *+ CLOUDY    75  57  53 SW10      29.98F
WASHINGTON +   CLOUDY    73  60  63 S8G16     29.94F

$$

INZ062-063-066-070>080-084-089>092-252300-
SOUTH CENTRAL AND SOUTHEAST INDIANA

CITY           SKY/WX    TMP DP  RH WIND       PRES   REMARKS
BLOOMINGTON    CLOUDY    73  59  61 S6        29.98R

$$




USA.gov is the U.S. government's official web portal to all federal, state and local government web resources and services.